#datetime,building,power
2023-08-15T00:00:00,sdl,8.27
2023-08-15T00:01:00,sdl,7.76
2023-08-15T00:02:00,sdl,8.01
2023-08-15T00:03:00,sdl,7.45
2023-08-15T00:04:00,sdl,8.74
2023-08-15T00:05:00,sdl,8.72
2023-08-15T00:06:00,sdl,8.80
2023-08-15T00:07:00,sdl,9.02
2023-08-15T00:08:00,sdl,9.12
2023-08-15T00:09:00,sdl,9.08
2023-08-15T00:10:00,sdl,9.11
2023-08-15T00:11:00,sdl,6.87
2023-08-15T00:12:00,sdl,6.87
2023-08-15T00:13:00,sdl,6.83
2023-08-15T00:14:00,sdl,7.08
2023-08-15T00:15:00,sdl,6.78
2023-08-15T00:16:00,sdl,7.04
2023-08-15T00:17:00,sdl,6.81
2023-08-15T00:18:00,sdl,6.04
2023-08-15T00:19:00,sdl,5.22
2023-08-15T00:20:00,sdl,4.86
2023-08-15T00:21:00,sdl,5.06
2023-08-15T00:22:00,sdl,5.17
2023-08-15T00:23:00,sdl,5.90
2023-08-15T00:24:00,sdl,6.77
2023-08-15T00:25:00,sdl,7.01
2023-08-15T00:26:00,sdl,7.18
2023-08-15T00:27:00,sdl,10.02
2023-08-15T00:28:00,sdl,10.36
2023-08-15T00:29:00,sdl,9.72
2023-08-15T00:30:00,sdl,9.46
2023-08-15T00:31:00,sdl,9.05
2023-08-15T00:32:00,sdl,9.02
2023-08-15T00:33:00,sdl,9.17
2023-08-15T00:34:00,sdl,9.78
2023-08-15T00:35:00,sdl,9.22
2023-08-15T00:36:00,sdl,9.22
2023-08-15T00:37:00,sdl,9.75
2023-08-15T00:38:00,sdl,6.80
2023-08-15T00:39:00,sdl,6.79
2023-08-15T00:40:00,sdl,5.44
2023-08-15T00:41:00,sdl,5.20
2023-08-15T00:42:00,sdl,5.23
2023-08-15T00:43:00,sdl,5.42
2023-08-15T00:44:00,sdl,5.28
2023-08-15T00:45:00,sdl,6.31
2023-08-15T00:46:00,sdl,6.37
2023-08-15T00:47:00,sdl,6.45
2023-08-15T00:48:00,sdl,6.73
2023-08-15T00:49:00,sdl,6.74
2023-08-15T00:50:00,sdl,6.78
2023-08-15T00:51:00,sdl,6.84
2023-08-15T00:52:00,sdl,7.71
2023-08-15T00:53:00,sdl,6.91
2023-08-15T00:54:00,sdl,6.83
2023-08-15T00:55:00,sdl,6.93
2023-08-15T00:56:00,sdl,6.90
2023-08-15T00:57:00,sdl,6.92
2023-08-15T00:58:00,sdl,7.30
2023-08-15T00:59:00,sdl,5.92
2023-08-15T01:00:00,sdl,5.17
2023-08-15T01:01:00,sdl,4.63
2023-08-15T01:02:00,sdl,6.84
2023-08-15T01:03:00,sdl,6.80
2023-08-15T01:04:00,sdl,7.79
2023-08-15T01:05:00,sdl,8.05
2023-08-15T01:06:00,sdl,8.05
2023-08-15T01:07:00,sdl,8.20
2023-08-15T01:08:00,sdl,8.22
2023-08-15T01:09:00,sdl,8.30
2023-08-15T01:10:00,sdl,8.72
2023-08-15T01:11:00,sdl,8.38
2023-08-15T01:12:00,sdl,8.57
2023-08-15T01:13:00,sdl,8.46
2023-08-15T01:14:00,sdl,8.39
2023-08-15T01:15:00,sdl,8.45
2023-08-15T01:16:00,sdl,8.68
2023-08-15T01:17:00,sdl,8.49
2023-08-15T01:18:00,sdl,5.27
2023-08-15T01:19:00,sdl,4.61
2023-08-15T01:20:00,sdl,4.55
2023-08-15T01:21:00,sdl,4.44
2023-08-15T01:22:00,sdl,4.50
2023-08-15T01:23:00,sdl,4.60
2023-08-15T01:24:00,sdl,5.49
2023-08-15T01:25:00,sdl,5.61
2023-08-15T01:26:00,sdl,5.61
2023-08-15T01:27:00,sdl,5.78
2023-08-15T01:28:00,sdl,6.72
2023-08-15T01:29:00,sdl,5.94
2023-08-15T01:30:00,sdl,6.39
2023-08-15T01:31:00,sdl,6.45
2023-08-15T01:32:00,sdl,6.19
2023-08-15T01:33:00,sdl,6.21
2023-08-15T01:34:00,sdl,6.78
2023-08-15T01:35:00,sdl,6.35
2023-08-15T01:36:00,sdl,6.99
2023-08-15T01:37:00,sdl,6.37
2023-08-15T01:38:00,sdl,4.88
2023-08-15T01:39:00,sdl,4.58
2023-08-15T01:40:00,sdl,4.75
2023-08-15T01:41:00,sdl,4.56
2023-08-15T01:42:00,sdl,4.57
2023-08-15T01:43:00,sdl,4.52
2023-08-15T01:44:00,sdl,5.64
2023-08-15T01:45:00,sdl,5.97
2023-08-15T01:46:00,sdl,6.21
2023-08-15T01:47:00,sdl,6.20
2023-08-15T01:48:00,sdl,6.28
2023-08-15T01:49:00,sdl,6.30
2023-08-15T01:50:00,sdl,9.19
2023-08-15T01:51:00,sdl,8.54
2023-08-15T01:52:00,sdl,8.71
2023-08-15T01:53:00,sdl,8.58
2023-08-15T01:54:00,sdl,8.55
2023-08-15T01:55:00,sdl,8.62
2023-08-15T01:56:00,sdl,8.86
2023-08-15T01:57:00,sdl,6.72
2023-08-15T01:58:00,sdl,6.72
2023-08-15T01:59:00,sdl,6.66
2023-08-15T02:00:00,sdl,6.79
2023-08-15T02:01:00,sdl,8.57
2023-08-15T02:02:00,sdl,8.85
2023-08-15T02:03:00,sdl,7.96
2023-08-15T02:04:00,sdl,7.97
2023-08-15T02:05:00,sdl,8.12
2023-08-15T02:06:00,sdl,13.13
2023-08-15T02:07:00,sdl,12.90
2023-08-15T02:08:00,sdl,12.98
2023-08-15T02:09:00,sdl,13.10
2023-08-15T02:10:00,sdl,13.88
2023-08-15T02:11:00,sdl,14.09
2023-08-15T02:12:00,sdl,14.38
2023-08-15T02:13:00,sdl,14.52
2023-08-15T02:14:00,sdl,14.65
2023-08-15T02:15:00,sdl,13.44
2023-08-15T02:16:00,sdl,14.05
2023-08-15T02:17:00,sdl,13.85
2023-08-15T02:18:00,sdl,15.95
2023-08-15T02:19:00,sdl,15.79
2023-08-15T02:20:00,sdl,16.07
2023-08-15T02:21:00,sdl,17.04
2023-08-15T02:22:00,sdl,17.11
2023-08-15T02:23:00,sdl,17.21
2023-08-15T02:24:00,sdl,17.20
2023-08-15T02:25:00,sdl,17.21
2023-08-15T02:26:00,sdl,17.25
2023-08-15T02:27:00,sdl,17.07
2023-08-15T02:28:00,sdl,17.30
2023-08-15T02:29:00,sdl,17.00
2023-08-15T02:30:00,sdl,17.00
2023-08-15T02:31:00,sdl,17.05
2023-08-15T02:32:00,sdl,14.17
2023-08-15T02:33:00,sdl,13.88
2023-08-15T02:34:00,sdl,13.90
2023-08-15T02:35:00,sdl,13.84
2023-08-15T02:36:00,sdl,13.94
2023-08-15T02:37:00,sdl,14.02
2023-08-15T02:38:00,sdl,14.47
2023-08-15T02:39:00,sdl,15.22
2023-08-15T02:40:00,sdl,15.59
2023-08-15T02:41:00,sdl,15.03
2023-08-15T02:42:00,sdl,14.90
2023-08-15T02:43:00,sdl,14.86
2023-08-15T02:44:00,sdl,14.65
2023-08-15T02:45:00,sdl,14.67
2023-08-15T02:46:00,sdl,14.66
2023-08-15T02:47:00,sdl,14.66
2023-08-15T02:48:00,sdl,14.58
2023-08-15T02:49:00,sdl,13.75
2023-08-15T02:50:00,sdl,13.77
2023-08-15T02:51:00,sdl,13.56
2023-08-15T02:52:00,sdl,13.63
2023-08-15T02:53:00,sdl,13.90
2023-08-15T02:54:00,sdl,13.52
2023-08-15T02:55:00,sdl,13.54
2023-08-15T02:56:00,sdl,14.33
2023-08-15T02:57:00,sdl,14.54
2023-08-15T02:58:00,sdl,15.31
2023-08-15T02:59:00,sdl,16.74
2023-08-15T03:00:00,sdl,16.62
2023-08-15T03:01:00,sdl,16.39
2023-08-15T03:02:00,sdl,16.46
2023-08-15T03:03:00,sdl,16.44
2023-08-15T03:04:00,sdl,16.73
2023-08-15T03:05:00,sdl,16.81
2023-08-15T03:06:00,sdl,15.74
2023-08-15T03:07:00,sdl,15.58
2023-08-15T03:08:00,sdl,15.74
2023-08-15T03:09:00,sdl,16.37
2023-08-15T03:10:00,sdl,15.72
2023-08-15T03:11:00,sdl,15.73
2023-08-15T03:12:00,sdl,16.07
2023-08-15T03:13:00,sdl,16.11
2023-08-15T03:14:00,sdl,16.69
2023-08-15T03:15:00,sdl,16.69
2023-08-15T03:16:00,sdl,16.61
2023-08-15T03:17:00,sdl,14.97
2023-08-15T03:18:00,sdl,14.42
2023-08-15T03:19:00,sdl,14.39
2023-08-15T03:20:00,sdl,14.48
2023-08-15T03:21:00,sdl,15.19
2023-08-15T03:22:00,sdl,14.47
2023-08-15T03:23:00,sdl,14.46
2023-08-15T03:24:00,sdl,14.45
2023-08-15T03:25:00,sdl,13.56
2023-08-15T03:26:00,sdl,13.53
2023-08-15T03:27:00,sdl,13.60
2023-08-15T03:28:00,sdl,13.64
2023-08-15T03:29:00,sdl,14.13
2023-08-15T03:30:00,sdl,13.80
2023-08-15T03:31:00,sdl,13.57
2023-08-15T03:32:00,sdl,13.57
2023-08-15T03:33:00,sdl,15.16
2023-08-15T03:34:00,sdl,14.52
2023-08-15T03:35:00,sdl,14.52
2023-08-15T03:36:00,sdl,16.70
2023-08-15T03:37:00,sdl,16.69
2023-08-15T03:38:00,sdl,16.81
2023-08-15T03:39:00,sdl,16.65
2023-08-15T03:40:00,sdl,16.60
2023-08-15T03:41:00,sdl,16.66
2023-08-15T03:42:00,sdl,17.19
2023-08-15T03:43:00,sdl,17.05
2023-08-15T03:44:00,sdl,16.11
2023-08-15T03:45:00,sdl,15.82
2023-08-15T03:46:00,sdl,13.65
2023-08-15T03:47:00,sdl,14.24
2023-08-15T03:48:00,sdl,13.57
2023-08-15T03:49:00,sdl,13.68
2023-08-15T03:50:00,sdl,13.76
2023-08-15T03:51:00,sdl,14.51
2023-08-15T03:52:00,sdl,14.55
2023-08-15T03:53:00,sdl,14.66
2023-08-15T03:54:00,sdl,14.71
2023-08-15T03:55:00,sdl,14.66
2023-08-15T03:56:00,sdl,14.55
2023-08-15T03:57:00,sdl,14.58
2023-08-15T03:58:00,sdl,14.79
2023-08-15T03:59:00,sdl,15.21
2023-08-15T04:00:00,sdl,14.72
2023-08-15T04:01:00,sdl,14.43
2023-08-15T04:02:00,sdl,13.76
2023-08-15T04:03:00,sdl,13.75
2023-08-15T04:04:00,sdl,13.72
2023-08-15T04:05:00,sdl,15.71
2023-08-15T04:06:00,sdl,15.89
2023-08-15T04:07:00,sdl,15.65
2023-08-15T04:08:00,sdl,16.27
2023-08-15T04:09:00,sdl,16.23
2023-08-15T04:10:00,sdl,16.35
2023-08-15T04:11:00,sdl,16.70
2023-08-15T04:12:00,sdl,16.83
2023-08-15T04:13:00,sdl,16.81
2023-08-15T04:14:00,sdl,16.40
2023-08-15T04:15:00,sdl,16.53
2023-08-15T04:16:00,sdl,16.45
2023-08-15T04:17:00,sdl,15.95
2023-08-15T04:18:00,sdl,15.81
2023-08-15T04:19:00,sdl,15.55
2023-08-15T04:20:00,sdl,15.54
2023-08-15T04:21:00,sdl,15.64
2023-08-15T04:22:00,sdl,15.63
2023-08-15T04:23:00,sdl,15.55
2023-08-15T04:24:00,sdl,15.40
2023-08-15T04:25:00,sdl,14.23
2023-08-15T04:26:00,sdl,14.40
2023-08-15T04:27:00,sdl,14.34
2023-08-15T04:28:00,sdl,14.43
2023-08-15T04:29:00,sdl,14.36
2023-08-15T04:30:00,sdl,14.45
2023-08-15T04:31:00,sdl,14.31
2023-08-15T04:32:00,sdl,14.56
2023-08-15T04:33:00,sdl,14.38
2023-08-15T04:34:00,sdl,13.48
2023-08-15T04:35:00,sdl,13.29
2023-08-15T04:36:00,sdl,13.36
2023-08-15T04:37:00,sdl,13.32
2023-08-15T04:38:00,sdl,13.84
2023-08-15T04:39:00,sdl,13.30
2023-08-15T04:40:00,sdl,13.29
2023-08-15T04:41:00,sdl,14.44
2023-08-15T04:42:00,sdl,14.65
2023-08-15T04:43:00,sdl,14.50
2023-08-15T04:44:00,sdl,14.20
2023-08-15T04:45:00,sdl,14.21
2023-08-15T04:46:00,sdl,14.38
2023-08-15T04:47:00,sdl,14.27
2023-08-15T04:48:00,sdl,14.25
2023-08-15T04:49:00,sdl,14.76
2023-08-15T04:50:00,sdl,14.36
2023-08-15T04:51:00,sdl,14.55
2023-08-15T04:52:00,sdl,14.22
2023-08-15T04:53:00,sdl,14.08
2023-08-15T04:54:00,sdl,14.24
2023-08-15T04:55:00,sdl,14.03
2023-08-15T04:56:00,sdl,14.02
2023-08-15T04:57:00,sdl,16.21
2023-08-15T04:58:00,sdl,16.14
2023-08-15T04:59:00,sdl,16.10
2023-08-15T05:00:00,sdl,16.20
2023-08-15T05:01:00,sdl,16.35
2023-08-15T05:02:00,sdl,16.36
2023-08-15T05:03:00,sdl,16.38
2023-08-15T05:04:00,sdl,16.40
2023-08-15T05:05:00,sdl,16.42
2023-08-15T05:06:00,sdl,16.83
2023-08-15T05:07:00,sdl,16.48
2023-08-15T05:08:00,sdl,16.32
2023-08-15T05:09:00,sdl,16.38
2023-08-15T05:10:00,sdl,16.35
2023-08-15T05:11:00,sdl,16.29
2023-08-15T05:12:00,sdl,13.58
2023-08-15T05:13:00,sdl,13.65
2023-08-15T05:14:00,sdl,13.15
2023-08-15T05:15:00,sdl,13.21
2023-08-15T05:16:00,sdl,13.21
2023-08-15T05:17:00,sdl,13.12
2023-08-15T05:18:00,sdl,13.64
2023-08-15T05:19:00,sdl,13.16
2023-08-15T05:20:00,sdl,14.05
2023-08-15T05:21:00,sdl,14.09
2023-08-15T05:22:00,sdl,14.10
2023-08-15T05:23:00,sdl,14.04
2023-08-15T05:24:00,sdl,14.21
2023-08-15T05:25:00,sdl,14.11
2023-08-15T05:26:00,sdl,16.31
2023-08-15T05:27:00,sdl,16.37
2023-08-15T05:28:00,sdl,16.33
2023-08-15T05:29:00,sdl,16.29
2023-08-15T05:30:00,sdl,16.44
2023-08-15T05:31:00,sdl,15.37
2023-08-15T05:32:00,sdl,15.29
2023-08-15T05:33:00,sdl,15.49
2023-08-15T05:34:00,sdl,15.23
2023-08-15T05:35:00,sdl,15.21
2023-08-15T05:36:00,sdl,15.27
2023-08-15T05:37:00,sdl,15.26
2023-08-15T05:38:00,sdl,16.21
2023-08-15T05:39:00,sdl,16.15
2023-08-15T05:40:00,sdl,14.27
2023-08-15T05:41:00,sdl,14.16
2023-08-15T05:42:00,sdl,14.81
2023-08-15T05:43:00,sdl,14.69
2023-08-15T05:44:00,sdl,14.30
2023-08-15T05:45:00,sdl,14.26
2023-08-15T05:46:00,sdl,14.30
2023-08-15T05:47:00,sdl,14.31
2023-08-15T05:48:00,sdl,13.38
2023-08-15T05:49:00,sdl,13.40
2023-08-15T05:50:00,sdl,13.37
2023-08-15T05:51:00,sdl,13.27
2023-08-15T05:52:00,sdl,13.30
2023-08-15T05:53:00,sdl,13.30
2023-08-15T05:54:00,sdl,13.32
2023-08-15T05:55:00,sdl,13.87
2023-08-15T05:56:00,sdl,14.06
2023-08-15T05:57:00,sdl,14.22
2023-08-15T05:58:00,sdl,14.22
2023-08-15T05:59:00,sdl,14.24
2023-08-15T06:00:00,sdl,14.24
2023-08-15T06:01:00,sdl,14.38
2023-08-15T06:02:00,sdl,14.44
2023-08-15T06:03:00,sdl,14.42
2023-08-15T06:04:00,sdl,16.63
2023-08-15T06:05:00,sdl,16.53
2023-08-15T06:06:00,sdl,16.66
2023-08-15T06:07:00,sdl,15.60
2023-08-15T06:08:00,sdl,15.57
2023-08-15T06:09:00,sdl,15.43
2023-08-15T06:10:00,sdl,15.34
2023-08-15T06:11:00,sdl,15.29
2023-08-15T06:12:00,sdl,15.30
2023-08-15T06:13:00,sdl,15.31
2023-08-15T06:14:00,sdl,16.22
2023-08-15T06:15:00,sdl,16.73
2023-08-15T06:16:00,sdl,16.63
2023-08-15T06:17:00,sdl,16.36
2023-08-15T06:18:00,sdl,16.57
2023-08-15T06:19:00,sdl,16.39
2023-08-15T06:20:00,sdl,16.92
2023-08-15T06:21:00,sdl,16.22
2023-08-15T06:22:00,sdl,16.28
2023-08-15T06:23:00,sdl,14.17
2023-08-15T06:24:00,sdl,14.20
2023-08-15T06:25:00,sdl,14.21
2023-08-15T06:26:00,sdl,13.21
2023-08-15T06:27:00,sdl,13.27
2023-08-15T06:28:00,sdl,13.18
2023-08-15T06:29:00,sdl,13.22
2023-08-15T06:30:00,sdl,13.33
2023-08-15T06:31:00,sdl,13.32
2023-08-15T06:32:00,sdl,13.11
2023-08-15T06:33:00,sdl,13.08
2023-08-15T06:34:00,sdl,14.07
2023-08-15T06:35:00,sdl,14.00
2023-08-15T06:36:00,sdl,14.07
2023-08-15T06:37:00,sdl,13.97
2023-08-15T06:38:00,sdl,13.96
2023-08-15T06:39:00,sdl,13.96
2023-08-15T06:40:00,sdl,14.05
2023-08-15T06:41:00,sdl,14.69
2023-08-15T06:42:00,sdl,13.92
2023-08-15T06:43:00,sdl,14.12
2023-08-15T06:44:00,sdl,14.17
2023-08-15T06:45:00,sdl,14.14
2023-08-15T06:46:00,sdl,13.17
2023-08-15T06:47:00,sdl,13.95
2023-08-15T06:48:00,sdl,13.61
2023-08-15T06:49:00,sdl,13.55
2023-08-15T06:50:00,sdl,13.17
2023-08-15T06:51:00,sdl,13.13
2023-08-15T06:52:00,sdl,13.25
2023-08-15T06:53:00,sdl,16.25
2023-08-15T06:54:00,sdl,16.38
2023-08-15T06:55:00,sdl,16.22
2023-08-15T06:56:00,sdl,16.95
2023-08-15T06:57:00,sdl,16.22
2023-08-15T06:58:00,sdl,16.27
2023-08-15T06:59:00,sdl,16.30
2023-08-15T07:00:00,sdl,16.26
2023-08-15T07:01:00,sdl,16.34
2023-08-15T07:02:00,sdl,16.32
2023-08-15T07:03:00,sdl,16.20
2023-08-15T07:04:00,sdl,16.36
2023-08-15T07:05:00,sdl,16.39
2023-08-15T07:06:00,sdl,15.60
2023-08-15T07:07:00,sdl,13.25
2023-08-15T07:08:00,sdl,13.22
2023-08-15T07:09:00,sdl,13.27
2023-08-15T07:10:00,sdl,13.23
2023-08-15T07:11:00,sdl,13.40
2023-08-15T07:12:00,sdl,13.80
2023-08-15T07:13:00,sdl,14.06
2023-08-15T07:14:00,sdl,13.93
2023-08-15T07:15:00,sdl,13.97
2023-08-15T07:16:00,sdl,13.85
2023-08-15T07:17:00,sdl,14.01
2023-08-15T07:18:00,sdl,14.09
2023-08-15T07:19:00,sdl,14.80
2023-08-15T07:20:00,sdl,14.26
2023-08-15T07:21:00,sdl,16.09
2023-08-15T07:22:00,sdl,16.12
2023-08-15T07:23:00,sdl,15.34
2023-08-15T07:24:00,sdl,15.30
2023-08-15T07:25:00,sdl,15.31
2023-08-15T07:26:00,sdl,15.60
2023-08-15T07:27:00,sdl,15.57
2023-08-15T07:28:00,sdl,15.62
2023-08-15T07:29:00,sdl,15.62
2023-08-15T07:30:00,sdl,16.72
2023-08-15T07:31:00,sdl,17.08
2023-08-15T07:32:00,sdl,18.02
2023-08-15T07:33:00,sdl,18.30
2023-08-15T07:34:00,sdl,18.25
2023-08-15T07:35:00,sdl,18.54
2023-08-15T07:36:00,sdl,18.31
2023-08-15T07:37:00,sdl,18.49
2023-08-15T07:38:00,sdl,18.69
2023-08-15T07:39:00,sdl,18.82
2023-08-15T07:40:00,sdl,18.80
2023-08-15T07:41:00,sdl,19.07
2023-08-15T07:42:00,sdl,19.04
2023-08-15T07:43:00,sdl,18.06
2023-08-15T07:44:00,sdl,18.79
2023-08-15T07:45:00,sdl,18.82
2023-08-15T07:46:00,sdl,18.80
2023-08-15T07:47:00,sdl,19.20
2023-08-15T07:48:00,sdl,18.64
2023-08-15T07:49:00,sdl,19.97
2023-08-15T07:50:00,sdl,20.06
2023-08-15T07:51:00,sdl,20.03
2023-08-15T07:52:00,sdl,19.62
2023-08-15T07:53:00,sdl,19.70
2023-08-15T07:54:00,sdl,19.99
2023-08-15T07:55:00,sdl,23.20
2023-08-15T07:56:00,sdl,22.30
2023-08-15T07:57:00,sdl,22.51
2023-08-15T07:58:00,sdl,22.58
2023-08-15T07:59:00,sdl,22.55
2023-08-15T08:00:00,sdl,24.81
2023-08-15T08:01:00,sdl,24.49
2023-08-15T08:02:00,sdl,25.83
2023-08-15T08:03:00,sdl,25.94
2023-08-15T08:04:00,sdl,25.97
2023-08-15T08:05:00,sdl,26.08
2023-08-15T08:06:00,sdl,26.30
2023-08-15T08:07:00,sdl,26.39
2023-08-15T08:08:00,sdl,26.68
2023-08-15T08:09:00,sdl,27.53
2023-08-15T08:10:00,sdl,26.64
2023-08-15T08:11:00,sdl,26.80
2023-08-15T08:12:00,sdl,26.77
2023-08-15T08:13:00,sdl,26.73
2023-08-15T08:14:00,sdl,26.43
2023-08-15T08:15:00,sdl,26.39
2023-08-15T08:16:00,sdl,26.17
2023-08-15T08:17:00,sdl,26.52
2023-08-15T08:18:00,sdl,26.52
2023-08-15T08:19:00,sdl,25.39
2023-08-15T08:20:00,sdl,25.55
2023-08-15T08:21:00,sdl,25.66
2023-08-15T08:22:00,sdl,25.64
2023-08-15T08:23:00,sdl,25.48
2023-08-15T08:24:00,sdl,25.35
2023-08-15T08:25:00,sdl,25.32
2023-08-15T08:26:00,sdl,24.72
2023-08-15T08:27:00,sdl,24.61
2023-08-15T08:28:00,sdl,18.57
2023-08-15T08:29:00,sdl,20.46
2023-08-15T08:30:00,sdl,20.02
2023-08-15T08:31:00,sdl,19.89
2023-08-15T08:32:00,sdl,21.09
2023-08-15T08:33:00,sdl,20.50
2023-08-15T08:34:00,sdl,20.39
2023-08-15T08:35:00,sdl,20.13
2023-08-15T08:36:00,sdl,19.70
2023-08-15T08:37:00,sdl,19.69
2023-08-15T08:38:00,sdl,19.67
2023-08-15T08:39:00,sdl,19.16
2023-08-15T08:40:00,sdl,18.95
2023-08-15T08:41:00,sdl,19.08
2023-08-15T08:42:00,sdl,19.35
2023-08-15T08:43:00,sdl,19.15
2023-08-15T08:44:00,sdl,18.98
2023-08-15T08:45:00,sdl,19.09
2023-08-15T08:46:00,sdl,18.14
2023-08-15T08:47:00,sdl,20.09
2023-08-15T08:48:00,sdl,20.45
2023-08-15T08:49:00,sdl,20.21
2023-08-15T08:50:00,sdl,20.56
2023-08-15T08:51:00,sdl,19.69
2023-08-15T08:52:00,sdl,21.70
2023-08-15T08:53:00,sdl,23.18
2023-08-15T08:54:00,sdl,21.11
2023-08-15T08:55:00,sdl,21.16
2023-08-15T08:56:00,sdl,21.04
2023-08-15T08:57:00,sdl,20.63
2023-08-15T08:58:00,sdl,20.60
2023-08-15T08:59:00,sdl,21.13
2023-08-15T09:00:00,sdl,18.50
2023-08-15T09:01:00,sdl,18.68
2023-08-15T09:02:00,sdl,18.94
2023-08-15T09:03:00,sdl,18.59
2023-08-15T09:04:00,sdl,18.43
2023-08-15T09:05:00,sdl,17.70
2023-08-15T09:06:00,sdl,18.15
2023-08-15T09:07:00,sdl,18.17
2023-08-15T09:08:00,sdl,17.58
2023-08-15T09:09:00,sdl,17.53
2023-08-15T09:10:00,sdl,17.49
2023-08-15T09:11:00,sdl,18.54
2023-08-15T09:12:00,sdl,17.95
2023-08-15T09:13:00,sdl,18.57
2023-08-15T09:14:00,sdl,20.78
2023-08-15T09:15:00,sdl,20.69
2023-08-15T09:16:00,sdl,20.44
2023-08-15T09:17:00,sdl,20.55
2023-08-15T09:18:00,sdl,21.31
2023-08-15T09:19:00,sdl,20.92
2023-08-15T09:20:00,sdl,21.31
2023-08-15T09:21:00,sdl,21.24
2023-08-15T09:22:00,sdl,21.44
2023-08-15T09:23:00,sdl,21.05
2023-08-15T09:24:00,sdl,21.04
2023-08-15T09:25:00,sdl,21.08
2023-08-15T09:26:00,sdl,20.38
2023-08-15T09:27:00,sdl,20.15
2023-08-15T09:28:00,sdl,20.00
2023-08-15T09:29:00,sdl,20.02
2023-08-15T09:30:00,sdl,17.22
2023-08-15T09:31:00,sdl,17.54
2023-08-15T09:32:00,sdl,18.21
2023-08-15T09:33:00,sdl,19.08
2023-08-15T09:34:00,sdl,18.56
2023-08-15T09:35:00,sdl,18.63
2023-08-15T09:36:00,sdl,18.59
2023-08-15T09:37:00,sdl,19.94
2023-08-15T09:38:00,sdl,18.94
2023-08-15T09:39:00,sdl,18.55
2023-08-15T09:40:00,sdl,18.69
2023-08-15T09:41:00,sdl,18.64
2023-08-15T09:42:00,sdl,19.68
2023-08-15T09:43:00,sdl,19.06
2023-08-15T09:44:00,sdl,18.82
2023-08-15T09:45:00,sdl,18.54
2023-08-15T09:46:00,sdl,18.47
2023-08-15T09:47:00,sdl,17.64
2023-08-15T09:48:00,sdl,18.25
2023-08-15T09:49:00,sdl,17.49
2023-08-15T09:50:00,sdl,18.03
2023-08-15T09:51:00,sdl,18.30
2023-08-15T09:52:00,sdl,18.56
2023-08-15T09:53:00,sdl,19.42
2023-08-15T09:54:00,sdl,20.63
2023-08-15T09:55:00,sdl,20.59
2023-08-15T09:56:00,sdl,20.51
2023-08-15T09:57:00,sdl,21.25
2023-08-15T09:58:00,sdl,20.86
2023-08-15T09:59:00,sdl,20.93
2023-08-15T10:00:00,sdl,20.57
2023-08-15T10:01:00,sdl,20.70
2023-08-15T10:02:00,sdl,20.73
2023-08-15T10:03:00,sdl,21.44
2023-08-15T10:04:00,sdl,21.30
2023-08-15T10:05:00,sdl,20.98
2023-08-15T10:06:00,sdl,25.33
2023-08-15T10:07:00,sdl,24.99
2023-08-15T10:08:00,sdl,20.43
2023-08-15T10:09:00,sdl,20.48
2023-08-15T10:10:00,sdl,19.80
2023-08-15T10:11:00,sdl,22.12
2023-08-15T10:12:00,sdl,22.06
2023-08-15T10:13:00,sdl,22.38
2023-08-15T10:14:00,sdl,22.43
2023-08-15T10:15:00,sdl,22.71
2023-08-15T10:16:00,sdl,21.41
2023-08-15T10:17:00,sdl,21.70
2023-08-15T10:18:00,sdl,24.55
2023-08-15T10:19:00,sdl,25.04
2023-08-15T10:20:00,sdl,25.83
2023-08-15T10:21:00,sdl,26.03
2023-08-15T10:22:00,sdl,25.27
2023-08-15T10:23:00,sdl,25.13
2023-08-15T10:24:00,sdl,25.14
2023-08-15T10:25:00,sdl,25.13
2023-08-15T10:26:00,sdl,25.21
2023-08-15T10:27:00,sdl,25.29
2023-08-15T10:28:00,sdl,25.52
2023-08-15T10:29:00,sdl,25.57
2023-08-15T10:30:00,sdl,25.49
2023-08-15T10:31:00,sdl,25.92
2023-08-15T10:32:00,sdl,26.19
2023-08-15T10:33:00,sdl,25.62
2023-08-15T10:34:00,sdl,25.60
2023-08-15T10:35:00,sdl,25.68
2023-08-15T10:36:00,sdl,25.71
2023-08-15T10:37:00,sdl,25.67
2023-08-15T10:38:00,sdl,26.84
2023-08-15T10:39:00,sdl,24.02
2023-08-15T10:40:00,sdl,24.64
2023-08-15T10:41:00,sdl,24.86
2023-08-15T10:42:00,sdl,24.52
2023-08-15T10:43:00,sdl,24.36
2023-08-15T10:44:00,sdl,24.28
2023-08-15T10:45:00,sdl,24.49
2023-08-15T10:46:00,sdl,24.54
2023-08-15T10:47:00,sdl,23.90
2023-08-15T10:48:00,sdl,26.48
2023-08-15T10:49:00,sdl,26.03
2023-08-15T10:50:00,sdl,26.23
2023-08-15T10:51:00,sdl,23.27
2023-08-15T10:52:00,sdl,23.04
2023-08-15T10:53:00,sdl,23.10
2023-08-15T10:54:00,sdl,23.00
2023-08-15T10:55:00,sdl,23.52
2023-08-15T10:56:00,sdl,22.68
2023-08-15T10:57:00,sdl,21.90
2023-08-15T10:58:00,sdl,22.14
2023-08-15T10:59:00,sdl,21.79
2023-08-15T11:00:00,sdl,21.86
2023-08-15T11:01:00,sdl,22.22
2023-08-15T11:02:00,sdl,22.71
2023-08-15T11:03:00,sdl,22.68
2023-08-15T11:04:00,sdl,22.76
2023-08-15T11:05:00,sdl,20.46
2023-08-15T11:06:00,sdl,20.77
2023-08-15T11:07:00,sdl,20.39
2023-08-15T11:08:00,sdl,21.20
2023-08-15T11:09:00,sdl,20.59
2023-08-15T11:10:00,sdl,20.43
2023-08-15T11:11:00,sdl,20.64
2023-08-15T11:12:00,sdl,20.40
2023-08-15T11:13:00,sdl,20.42
2023-08-15T11:14:00,sdl,20.37
2023-08-15T11:15:00,sdl,20.51
2023-08-15T11:16:00,sdl,19.60
2023-08-15T11:17:00,sdl,19.57
2023-08-15T11:18:00,sdl,19.64
2023-08-15T11:19:00,sdl,19.51
2023-08-15T11:20:00,sdl,19.55
2023-08-15T11:21:00,sdl,21.56
2023-08-15T11:22:00,sdl,22.46
2023-08-15T11:23:00,sdl,22.32
2023-08-15T11:24:00,sdl,23.74
2023-08-15T11:25:00,sdl,22.57
2023-08-15T11:26:00,sdl,22.34
2023-08-15T11:27:00,sdl,22.40
2023-08-15T11:28:00,sdl,22.45
2023-08-15T11:29:00,sdl,22.37
2023-08-15T11:30:00,sdl,22.46
2023-08-15T11:31:00,sdl,22.45
2023-08-15T11:32:00,sdl,22.49
2023-08-15T11:33:00,sdl,20.33
2023-08-15T11:34:00,sdl,20.35
2023-08-15T11:35:00,sdl,20.34
2023-08-15T11:36:00,sdl,20.35
2023-08-15T11:37:00,sdl,20.30
2023-08-15T11:38:00,sdl,20.23
2023-08-15T11:39:00,sdl,20.29
2023-08-15T11:40:00,sdl,20.21
2023-08-15T11:41:00,sdl,20.13
2023-08-15T11:42:00,sdl,20.30
2023-08-15T11:43:00,sdl,19.39
2023-08-15T11:44:00,sdl,17.71
2023-08-15T11:45:00,sdl,18.12
2023-08-15T11:46:00,sdl,19.99
2023-08-15T11:47:00,sdl,21.01
2023-08-15T11:48:00,sdl,21.01
2023-08-15T11:49:00,sdl,20.92
2023-08-15T11:50:00,sdl,21.47
2023-08-15T11:51:00,sdl,21.04
2023-08-15T11:52:00,sdl,21.58
2023-08-15T11:53:00,sdl,21.41
2023-08-15T11:54:00,sdl,21.46
2023-08-15T11:55:00,sdl,21.37
2023-08-15T11:56:00,sdl,21.50
2023-08-15T11:57:00,sdl,20.71
2023-08-15T11:58:00,sdl,20.70
2023-08-15T11:59:00,sdl,21.29
2023-08-15T12:00:00,sdl,20.72
2023-08-15T12:01:00,sdl,20.62
2023-08-15T12:02:00,sdl,21.17
2023-08-15T12:03:00,sdl,20.82
2023-08-15T12:04:00,sdl,20.88
2023-08-15T12:05:00,sdl,19.95
2023-08-15T12:06:00,sdl,20.08
2023-08-15T12:07:00,sdl,20.26
2023-08-15T12:08:00,sdl,20.14
2023-08-15T12:09:00,sdl,20.14
2023-08-15T12:10:00,sdl,21.57
2023-08-15T12:11:00,sdl,21.04
2023-08-15T12:12:00,sdl,18.51
2023-08-15T12:13:00,sdl,18.54
2023-08-15T12:14:00,sdl,18.37
2023-08-15T12:15:00,sdl,18.41
2023-08-15T12:16:00,sdl,18.23
2023-08-15T12:17:00,sdl,18.17
2023-08-15T12:18:00,sdl,18.64
2023-08-15T12:19:00,sdl,18.83
2023-08-15T12:20:00,sdl,18.58
2023-08-15T12:21:00,sdl,18.53
2023-08-15T12:22:00,sdl,18.40
2023-08-15T12:23:00,sdl,18.80
2023-08-15T12:24:00,sdl,18.79
2023-08-15T12:25:00,sdl,18.80
2023-08-15T12:26:00,sdl,18.83
2023-08-15T12:27:00,sdl,19.19
2023-08-15T12:28:00,sdl,18.08
2023-08-15T12:29:00,sdl,18.00
2023-08-15T12:30:00,sdl,17.85
2023-08-15T12:31:00,sdl,17.70
2023-08-15T12:32:00,sdl,17.76
2023-08-15T12:33:00,sdl,18.69
2023-08-15T12:34:00,sdl,18.62
2023-08-15T12:35:00,sdl,19.31
2023-08-15T12:36:00,sdl,19.30
2023-08-15T12:37:00,sdl,21.48
2023-08-15T12:38:00,sdl,21.32
2023-08-15T12:39:00,sdl,21.98
2023-08-15T12:40:00,sdl,21.60
2023-08-15T12:41:00,sdl,21.50
2023-08-15T12:42:00,sdl,21.53
2023-08-15T12:43:00,sdl,21.44
2023-08-15T12:44:00,sdl,21.79
2023-08-15T12:45:00,sdl,21.38
2023-08-15T12:46:00,sdl,21.47
2023-08-15T12:47:00,sdl,21.29
2023-08-15T12:48:00,sdl,21.32
2023-08-15T12:49:00,sdl,21.21
2023-08-15T12:50:00,sdl,21.16
2023-08-15T12:51:00,sdl,21.09
2023-08-15T12:52:00,sdl,22.09
2023-08-15T12:53:00,sdl,19.40
2023-08-15T12:54:00,sdl,17.71
2023-08-15T12:55:00,sdl,15.39
2023-08-15T12:56:00,sdl,15.67
2023-08-15T12:57:00,sdl,16.48
2023-08-15T12:58:00,sdl,16.56
2023-08-15T12:59:00,sdl,16.93
2023-08-15T13:00:00,sdl,17.33
2023-08-15T13:01:00,sdl,16.94
2023-08-15T13:02:00,sdl,16.51
2023-08-15T13:03:00,sdl,15.39
2023-08-15T13:04:00,sdl,15.25
2023-08-15T13:05:00,sdl,16.17
2023-08-15T13:06:00,sdl,16.27
2023-08-15T13:07:00,sdl,16.35
2023-08-15T13:08:00,sdl,18.43
2023-08-15T13:09:00,sdl,18.44
2023-08-15T13:10:00,sdl,18.44
2023-08-15T13:11:00,sdl,18.36
2023-08-15T13:12:00,sdl,18.39
2023-08-15T13:13:00,sdl,18.50
2023-08-15T13:14:00,sdl,18.58
2023-08-15T13:15:00,sdl,20.25
2023-08-15T13:16:00,sdl,19.54
2023-08-15T13:17:00,sdl,19.25
2023-08-15T13:18:00,sdl,20.01
2023-08-15T13:19:00,sdl,17.51
2023-08-15T13:20:00,sdl,18.97
2023-08-15T13:21:00,sdl,18.35
2023-08-15T13:22:00,sdl,16.18